This is the latest recevied weather packets stored in our database for station/object KE0YJJ-14. If no packets are shown the sender has not sent any weather packets the latest 10 day(s).
| Time | Temp. | Humidity | Pressure | Rain* | Wind** | Luminosity | Snow |
|---|---|---|---|---|---|---|---|
| 1777605209 | 3.89° C | 67% | - | 0 mm | - | - | - |
| 1777604905 | 4.44° C | 67% | - | 0 mm | - | - | - |
| 1777604600 | 4.44° C | 65% | - | 0 mm | - | - | - |
| 1777604297 | 4.44° C | 65% | - | 0 mm | - | - | - |
| 1777603992 | 4.44° C | 66% | - | 0 mm | - | - | - |
| 1777603690 | 4.44° C | 62% | - | 0 mm | - | - | - |
| 1777603386 | 5° C | 62% | - | 0 mm | - | - | - |
| 1777603081 | 5° C | 63% | - | 0 mm | - | - | - |
| 1777602776 | 5.56° C | 63% | - | 0 mm | - | - | - |
| 1777602472 | 5.56° C | 62% | - | 0 mm | - | - | - |
| 1777602168 | 6.11° C | 59% | - | 0 mm | - | - | - |
| 1777601863 | 5.56° C | 60% | - | 0 mm | - | - | - |
| 1777601559 | 5.56° C | 61% | - | 0 mm | - | - | - |
| 1777601254 | 5.56° C | 61% | - | 0 mm | - | - | - |
| 1777600952 | 5.56° C | 61% | - | 0 mm | - | - | - |
| 1777600647 | 5.56° C | 59% | - | 0 mm | - | - | - |
| 1777600344 | 5° C | 58% | - | 0 mm | - | - | - |
| 1777600039 | 5.56° C | 59% | - | 0 mm | - | - | - |
| 1777599735 | 6.11° C | 55% | - | 0 mm | - | - | - |
| 1777599431 | 6.67° C | 54% | - | 0 mm | - | - | - |
| 1777599129 | 6.67° C | 54% | - | 0 mm | - | - | - |
| 1777598828 | 6.67° C | 54% | - | 0 mm | - | - | - |
| 1777598528 | 6.11° C | 54% | - | 0 mm | - | - | - |
| 1777598222 | 6.67° C | 54% | - | 0 mm | - | - | - |
| 1777597921 | 6.67° C | 54% | - | 0 mm | - | - | - |
* Rain latest hour (hover to see other rain measurements)
** Current wind speed in m/s (hover to see current wind gust speed)